TimeMDT,TemperatureF,Dew PointF,Humidity,Sea Level PressureIn,VisibilityMPH,Wind Direction,Wind SpeedMPH,Gust SpeedMPH,PrecipitationIn,Events,Conditions,WindDirDegrees,DateUTC
12:58 AM,60.1,56.7,88,29.96,10.0,West,4.6,-,N/A,,Mostly Cloudy,280,2013-09-10 06:58:00
1:58 AM,58.5,55.2,89,29.97,10.0,WNW,10.4,-,N/A,,Clear,300,2013-09-10 07:58:00
2:58 AM,57.9,53.8,86,29.98,10.0,WNW,3.5,-,N/A,,Clear,290,2013-09-10 08:58:00
3:58 AM,58.3,51.4,78,29.97,10.0,NNW,1.2,-,N/A,,Clear,340,2013-09-10 09:58:00
4:58 AM,57.7,50.5,77,29.99,10.0,WNW,6.9,-,N/A,,Clear,290,2013-09-10 10:58:00
5:58 AM,59.5,49.8,70,30.00,10.0,NW,11.5,-,N/A,,Clear,320,2013-09-10 11:58:00
6:58 AM,59.7,49.3,68,30.03,10.0,NW,9.2,-,N/A,,Clear,310,2013-09-10 12:58:00
7:58 AM,66.6,51.1,57,30.04,10.0,NW,11.5,-,N/A,,Clear,320,2013-09-10 13:58:00
8:58 AM,66.9,52.0,59,30.05,10.0,NNW,10.4,-,N/A,,Clear,330,2013-09-10 14:58:00
9:58 AM,68.7,52.7,57,30.07,10.0,NNW,18.4,19.6,N/A,,Partly Cloudy,330,2013-09-10 15:58:00
10:58 AM,69.4,52.3,54,30.08,10.0,North,13.8,-,N/A,,Clear,350,2013-09-10 16:58:00
11:58 AM,71.4,53.2,53,30.09,10.0,North,9.2,19.6,N/A,,Partly Cloudy,350,2013-09-10 17:58:00
12:58 PM,74.1,52.7,47,30.06,10.0,North,13.8,-,N/A,,Partly Cloudy,360,2013-09-10 18:58:00
1:58 PM,75.9,51.1,42,30.06,10.0,North,15.0,-,N/A,,Partly Cloudy,350,2013-09-10 19:58:00
2:58 PM,75.0,50.5,42,30.06,10.0,Variable,5.8,-,N/A,,Scattered Clouds,0,2013-09-10 20:58:00
3:58 PM,75.4,51.6,43,30.06,10.0,Variable,1.2,-,N/A,,Scattered Clouds,0,2013-09-10 21:58:00
4:58 PM,75.0,48.6,39,30.07,10.0,NNE,6.9,-,N/A,,Scattered Clouds,30,2013-09-10 22:58:00
5:58 PM,74.7,46.2,36,30.06,10.0,NNE,3.5,-,N/A,,Mostly Cloudy,30,2013-09-10 23:58:00
6:58 PM,73.0,50.2,44,30.08,10.0,South,4.6,-,N/A,,Mostly Cloudy,190,2013-09-11 00:58:00
7:58 PM,72.3,46.8,40,30.09,10.0,Variable,2.3,-,N/A,,Clear,0,2013-09-11 01:58:00
8:58 PM,67.5,51.8,57,30.11,10.0,East,1.2,-,N/A,,Clear,100,2013-09-11 02:58:00
9:58 PM,68.0,51.6,56,30.11,10.0,SW,1.2,-,N/A,,Clear,220,2013-09-11 03:58:00
10:58 PM,65.7,52.5,62,30.12,10.0,WSW,3.5,-,N/A,,Clear,250,2013-09-11 04:58:00
11:58 PM,61.5,53.2,74,30.12,10.0,WSW,5.8,-,N/A,,Clear,250,2013-09-11 05:58:00